Lid_Strength_Index
1 0 0 0 0 0 0 -0 -1 -0 0 -0 1 0 1 1 2 5 11 7 4 -1 2 6 7 7 7 8 8 8 12 14 13 12 11 11 10 9 8 9 8 6 6 4 2
1 1 1 1 0 0 0 -0 -1 -0 1 1 1 1 0 1 6 8 3 -1 -1 -1 7 7 8 8 9 9 9 10 13 12 11 11 11 11 10 9 9 9 9 7 5 3 2
1 1 1 1 0 0 0 -0 -0 -0 0 1 1 1 1 2 8 9 -0 -1 -1 1 6 7 7 8 10 10 10 11 12 11 11 11 10 10 10 10 10 10 9 8 6 4 3
1 1 1 1 1 1 -0 0 -0 0 0 1 1 0 0 5 14 6 -1 -0 -0 5 7 8 9 10 11 11 10 12 11 11 10 10 10 10 10 11 10 9 9 8 5 4 4
1 1 2 2 1 1 0 0 0 0 0 0 1 0 4 11 10 5 0 1 6 6 7 9 10 10 11 11 11 12 12 11 11 11 11 10 11 11 10 9 9 8 5 5 4
2 2 2 2 1 1 1 0 0 -0 0 0 -0 0 8 13 7 4 5 6 6 7 8 8 9 9 11 11 11 11 12 12 11 11 11 12 12 12 11 10 11 8 6 4 4
1 1 2 2 1 0 0 1 0 0 0 -0 -0 3 9 11 6 6 6 7 7 8 9 8 9 9 10 11 10 11 12 12 12 12 12 11 13 12 11 11 11 10 9 6 4
1 2 2 1 1 1 0 1 -0 0 -0 -0 -1 6 11 7 6 7 8 8 7 7 8 8 8 9 10 11 11 13 13 14 13 11 12 12 14 12 11 12 11 11 11 11 7
1 2 2 1 1 1 1 0 0 0 -0 -1 6 10 12 4 7 7 8 9 9 9 7 7 9 11 11 13 14 14 16 15 14 12 12 13 14 12 11 12 11 11 12 11 11
1 1 1 1 1 1 1 1 1 1 1 1 4 10 10 10 7 7 8 7 9 9 9 10 12 14 15 15 17 16 16 16 15 13 13 14 14 12 12 12 11 11 11 11 11
1 1 1 1 1 1 2 4 8 9 8 10 10 11 10 7 6 8 7 8 9 10 13 12 14 17 15 14 14 14 16 16 16 13 14 14 14 12 12 12 12 12 11 11 10
0 0 0 1 0 0 3 8 9 9 11 7 7 8 7 6 9 8 7 10 11 13 13 14 16 13 13 14 14 15 16 16 14 13 13 14 14 12 12 12 11 11 11 11 10
0 0 0 0 0 2 6 6 3 5 12 11 8 8 7 7 9 9 8 10 13 14 14 15 14 12 12 14 15 16 16 16 15 15 15 16 16 15 13 13 12 12 11 11 11
0 0 0 0 3 3 5 3 2 5 15 13 11 10 8 7 10 7 8 10 13 14 14 14 13 13 14 15 14 16 14 14 15 16 18 16 19 16 14 14 13 12 12 12 12
0 0 0 1 4 5 5 3 2 8 20 13 11 8 8 11 11 9 8 10 13 13 13 15 14 14 15 14 13 14 13 14 14 16 17 17 18 17 16 15 13 12 12 11 11
0 0 1 3 4 4 2 3 6 14 22 15 11 12 12 12 12 10 9 9 11 13 13 15 13 13 13 13 13 12 13 14 16 16 19 18 17 19 16 14 14 13 13 12 11
0 1 1 2 6 2 3 6 15 18 14 15 14 13 13 14 13 12 12 13 14 17 17 15 14 13 12 14 12 14 15 18 19 20 20 18 18 17 15 14 14 13 12 11 10
1 1 2 2 2 3 5 11 17 17 16 12 12 13 15 13 14 13 13 13 12 15 16 17 18 14 12 13 14 15 15 18 21 21 19 17 19 16 14 13 12 11 11 10 11
2 2 2 3 3 4 8 15 15 16 12 12 13 15 15 13 14 14 14 14 12 13 15 16 16 13 12 11 11 14 16 14 18 23 20 18 17 14 13 13 12 11 11 11 11
5 5 5 2 3 5 10 13 13 12 10 11 15 14 16 15 14 14 15 14 14 13 13 13 16 13 12 11 11 13 12 16 17 23 23 20 19 17 15 13 12 11 11 11 11
6 8 5 2 4 8 14 13 12 9 9 11 13 14 14 14 14 14 14 13 12 13 12 12 14 15 12 13 14 14 15 15 15 17 20 23 19 16 14 14 12 11 11 11 11
8 12 6 3 11 11 13 11 9 10 9 10 10 11 13 12 13 14 14 13 11 11 13 12 14 16 15 13 12 12 13 14 16 19 18 18 17 13 14 12 11 11 11 11 11
11 11 5 6 15 14 12 11 9 10 10 10 11 10 10 12 14 13 13 10 11 11 12 12 15 20 17 15 14 15 15 14 14 15 17 19 17 14 13 12 12 11 11 11 12
11 13 10 9 11 12 12 11 11 8 9 9 10 9 11 12 11 12 12 10 9 10 9 9 14 15 17 17 14 14 14 14 13 17 16 17 16 15 14 13 12 11 11 11 12
12 13 13 14 13 12 11 11 12 12 9 8 10 10 11 14 13 13 11 10 9 8 9 11 15 15 15 14 14 15 14 13 14 13 16 15 16 15 13 12 11 11 11 12 12
13 14 12 13 10 11 12 13 12 11 10 11 12 10 10 12 12 13 11 11 12 10 10 10 14 15 16 14 13 14 14 14 13 13 14 14 15 13 11 12 12 11 11 12 12
10 10 12 14 12 12 13 12 12 10 9 9 10 10 11 10 9 9 8 8 9 11 12 12 14 15 17 14 15 17 14 14 14 14 14 16 13 12 13 12 12 11 12 12 12